CAPE
9 22 46 73 63 47 71 89 139 133 153 117 101 98 517 576 1217 839 1085 1327 1191 1487 1953 2680 3248 3332 3388 2878 3364 3399 3631 3187 3953 4221 3725 4101 4353 4339 4040 3773 3156 3420 3244 2947
5 4 32 27 18 44 65 92 94 97 112 163 129 227 587 770 1686 2128 2348 2561 2886 1932 2094 2517 2914 3270 3271 3239 3368 3767 4335 3532 4307 4739 4871 4695 4669 4535 4356 3770 3765 3733 3448 3263
14 33 53 36 58 94 130 180 156 171 165 217 272 772 1413 1623 2210 2624 3009 3454 3691 3781 3792 3202 2822 3279 3507 3514 3382 4043 4853 4378 4402 4875 4556 4653 4407 4504 4361 4161 3896 3942 3572 3446
16 38 50 6 40 99 92 100 347 249 529 746 881 1420 1734 2022 2195 2269 2230 2201 2338 2996 4079 3794 2744 2810 3240 3496 3649 3707 3838 3964 4134 4714 4574 4653 4570 4514 4530 4114 4200 4109 3618 3747
22 37 29 20 182 168 208 389 473 577 940 897 418 1254 1893 1782 1833 1772 1752 1688 1715 1704 2404 3412 3428 3076 3161 3353 3687 3801 3875 3955 3887 3865 4268 4445 4386 4250 4024 3781 3807 3513 3314 3940
48 80 140 284 82 178 239 392 330 380 271 383 736 1596 1588 1031 1216 1269 1086 1029 1021 1093 1244 2727 3576 3593 3510 3532 3327 3666 3684 3970 4411 4137 4252 4412 4802 4841 4638 4351 4078 3614 4054 3907
217 265 219 210 121 197 357 513 360 294 323 228 376 635 642 823 595 667 693 776 639 775 1326 1830 2189 3509 3837 4022 3939 3795 3597 3718 4132 3969 4098 3757 3452 4254 4644 4449 4555 4659 4266 4351
235 401 120 98 226 314 427 343 242 234 264 207 168 127 149 411 564 608 507 431 178 320 843 1398 1426 1898 2212 2305 3383 3690 3827 3895 3907 3951 3630 3598 3908 3461 2863 2878 3187 3605 3585 4335
67 212 61 17 8 20 11 65 164 173 131 80 62 92 30 46 46 137 202 332 193 71 258 710 1230 1496 1770 2649 2099 2148 2388 2236 2154 2288 2223 3525 2818 1087 705 1603 1882 2025 2014 1372
57 98 157 164 65 116 184 71 39 113 70 43 37 21 21 39 34 69 129 242 311 240 199 384 1157 836 1367 1754 1929 2526 2180 2517 1946 1852 1464 2192 1148 432 126 292 959 501 583 526
9 27 5 76 78 137 80 112 92 84 63 40 32 21 23 15 66 89 101 180 201 516 457 487 724 993 1230 1112 1551 1775 1721 1436 1827 1580 1970 1931 1726 1863 1764 607 63 71 187 0
2 42 6 0 15 49 59 68 58 113 109 118 230 101 46 20 19 36 108 118 156 206 302 359 1012 1139 605 706 1011 1375 1062 816 433 527 854 1140 1279 1297 781 741 1141 1596 1902 871
0 0 2 0 2 6 62 74 18 33 73 50 143 146 100 273 258 47 49 75 120 166 251 508 585 507 1075 1631 1478 1427 1103 332 212 295 618 461 572 913 1153 508 472 640 990 1573
6 5 0 2 0 4 45 47 4 61 44 74 80 148 143 188 170 404 508 212 107 308 404 615 722 520 619 1192 1302 1336 542 52 55 0 0 32 211 411 513 637 886 756 608 633
72 75 36 36 38 0 1 31 35 0 28 0 24 87 228 175 285 472 382 312 308 299 223 335 643 918 805 595 1497 759 539 77 0 0 1 8 15 21 100 421 464 704 582 717
23 44 46 0 0 1 1 1 5 0 0 0 1 2 5 8 23 53 402 469 319 225 435 770 757 418 801 779 1226 291 551 170 24 0 0 27 87 89 0 2 273 490 736 923
21 0 0 0 0 0 3 2 4 0 0 3 0 1 5 1 0 16 343 236 215 265 199 487 537 1052 1252 653 367 325 152 55 84 41 12 3 4 21 49 39 79 255 529 1092
0 18 7 0 7 0 0 0 0 0 1 7 0 0 0 0 2 52 79 105 246 616 340 488 685 688 702 715 539 391 176 34 10 16 29 34 18 17 36 99 186 200 464 644
0 0 10 4 10 0 2 0 0 0 1 1 1 1 0 4 24 89 75 88 89 206 374 629 269 358 477 575 568 556 376 157 78 43 30 24 26 34 77 41 177 271 706 389
0 0 7 3 1 0 2 2 2 3 0 0 3 10 18 0 0 33 20 226 46 64 155 178 545 712 308 269 228 376 437 259 175 142 110 157 353 295 128 42 127 407 610 869
0 0 2 10 15 0 0 0 1 0 7 2 8 0 0 22 34 8 51 1 23 100 317 116 487 583 947 458 348 313 195 136 136 231 371 573 548 402 406 531 796 804 871 1042
0 0 0 1 6 21 1 2 3 9 0 0 0 3 3 0 1 8 14 7 14 7 19 159 623 301 223 220 426 539 363 298 396 475 698 849 669 754 727 727 893 929 935 1324
0 0 0 0 0 8 17 7 2 2 0 0 0 1 0 0 1 3 0 6 19 17 17 38 10 31 143 446 376 584 592 652 574 546 872 911 824 928 882 665 1527 1226 1339 1131
0 0 0 0 0 0 5 8 4 8 9 0 0 0 0 0 0 0 0 0 1 2 17 15 16 25 51 1074 721 452 520 597 1039 1103 947 775 745 1064 1173 1207 1174 1616 1484 1010
0 0 0 0 0 0 0 0 0 1 27 39 16 0 0 2 0 0 0 0 0 0 7 34 27 35 96 156 229 234 262 311 327 684 1316 1189 1099 947 1365 1041 1468 1643 1682 1511
0 0 0 0 0 0 0 0 0 0 2 10 12 17 6 1 2 0 1 0 1 0 3 61 101 143 229 206 232 159 121 98 101 156 224 249 331 519 899 1316 1175 1216 1256 1309
0 0 0 0 0 0 0 0 0 0 0 3 14 25 21 18 8 13 3 0 0 0 5 8 25 46 51 79 97 102 89 59 60 66 86 113 141 197 240 163 244 459 544 602
CIN
-0 -0 -3 -0 -1 -0 -0 -0 -0 -0 -0 -1 -19 -18 -13 -2 -20 -18 -25 -28 -57 -35 -36 -69 -77 -80 -95 -90 -75 -67 -43 -65 -18 -1 -3 -0 -0 -0 -0 -0 -0 -0 -0 -0
-0 -0 -0 -0 -20 -0 -0 -0 -1 -0 -1 -0 -2 -0 -0 -0 -25 -34 -60 -76 -63 -77 -94 -97 -118 -140 -135 -131 -99 -55 -25 -53 -13 -0 -0 -0 -0 -0 -0 -0 -0 -0 -0 -0
-0 -0 -0 -0 -0 -2 -0 -1 -1 -0 -1 -3 -0 -1 -7 -19 -32 -60 -61 -55 -45 -37 -36 -64 -121 -125 -123 -124 -109 -53 -12 -29 -17 -2 -0 -0 -0 -0 -0 -0 -0 -0 -0 -0
-0 -0 -0 -0 -0 -0 -0 -1 -2 -3 -0 -48 -40 -0 -0 -6 -23 -57 -93 -121 -119 -66 -15 -47 -120 -96 -89 -88 -85 -69 -49 -37 -28 -9 -8 -0 -0 -0 -0 -0 -0 -0 -0 -0
-0 -0 -0 -0 -11 -1 -0 -22 -5 -3 -0 -1 -56 -11 -1 -9 -5 -24 -46 -74 -94 -114 -70 -10 -35 -71 -57 -54 -62 -59 -37 -28 -34 -37 -22 -2 -0 -1 -1 -0 -0 -0 -0 -0
-0 -0 -0 -10 -2 -0 -5 -0 -42 -7 -43 -32 -23 -0 -8 -19 -4 -0 -9 -65 -88 -111 -124 -15 -0 -0 -4 -4 -28 -35 -31 -18 -3 -12 -11 -4 -0 -0 -0 -0 -0 -0 -0 -0
-0 -1 -6 -29 -28 -19 -0 -8 -2 -0 -0 -40 -15 -12 -3 -0 -31 -35 -59 -54 -69 -54 -22 -36 -24 -1 -0 -1 -4 -10 -20 -35 -22 -26 -9 -6 -3 -0 -0 -0 -0 -0 -0 -0
-0 -0 -46 -1 -0 -1 -0 -1 -3 -5 -2 -0 -30 -65 -43 -8 -0 -1 -28 -84 -136 -62 -12 -16 -38 -16 -38 -21 -0 -0 -0 -0 -1 -0 -0 -0 -0 -8 -43 -45 -8 -0 -1 -0
-0 -0 -6 -6 -11 -1 -11 -16 -0 -0 -3 -10 -17 -16 -30 -11 -34 -1 -10 -3 -56 -114 -9 -7 -25 -34 -8 -4 -47 -26 -23 -61 -45 -5 -5 -1 -38 -26 -501 -73 -97 -113 -93 -51
-4 -1 -3 -1 -0 -0 -1 -0 -8 -0 -4 -25 -30 -33 -8 -3 -1 -30 -39 -19 -15 -31 -30 -25 -15 -15 -27 -25 -21 -0 -1 -0 -16 -32 -36 -14 -148 -408 -167 -247 -62 -44 -27 -29
-8 -1 -33 -4 -5 -1 -18 -11 -6 -22 -7 -0 -0 -0 -42 -4 -0 -3 -4 -19 -2 -0 -5 -56 -26 -37 -43 -17 -13 -7 -2 -5 -3 -15 -1 -5 -45 -35 -46 -210 -117 -454 -393 -0
-0 -0 -0 -0 -8 -2 -0 -18 -2 -2 -4 -2 -0 -11 -25 -1 -10 -7 -1 -1 -3 -23 -4 -31 -1 -17 -47 -33 -8 -2 -6 -9 -18 -17 -0 -15 -24 -45 -103 -115 -96 -34 -2 -14
-0 -0 -1 -0 -0 -0 -0 -3 -14 -0 -3 -0 -1 -0 -0 -0 -2 -16 -42 -20 -2 -0 -1 -0 -0 -1 -0 -2 -0 -0 -0 -10 -11 -11 -0 -3 -6 -0 -1 -64 -106 -150 -48 -6
-1 -0 -0 -0 -0 -0 -0 -0 -0 -2 -0 -0 -0 -1 -0 -0 -8 -0 -0 -10 -18 -0 -0 -0 -0 -0 -4 -0 -3 -2 -6 -28 -12 -0 -0 -6 -18 -2 -8 -23 -4 -31 -60 -119
-0 -1 -1 -2 -1 -0 -1 -0 -0 -0 -1 -0 -0 -4 -0 -1 -0 -0 -2 -5 -1 -3 -4 -0 -0 -0 -0 -0 -0 -0 -2 -5 -0 -0 -0 -12 -21 -71 -16 -4 -22 -13 -6 -41
-0 -0 -0 -0 -0 -0 -0 -0 -0 -0 -0 -0 -0 -0 -0 -1 -3 -3 -0 -2 -4 -9 -0 -0 -0 -0 -0 -0 -0 -0 -0 -6 -15 -0 -0 -0 -1 -31 -0 -3 -10 -8 -2 -0
-0 -0 -0 -0 -0 -0 -0 -0 -1 -0 -0 -0 -0 -3 -0 -0 -0 -1 -0 -2 -6 -10 -32 -1 -0 -0 -0 -0 -0 -0 -0 -0 -20 -0 -0 -0 -0 -0 -39 -57 -16 -4 -0 -1
-0 -0 -0 -0 -0 -0 -0 -0 -0 -0 -0 -0 -0 -0 -0 -0 -0 -5 -0 -25 -3 -0 -0 -2 -4 -0 -0 -1 -0 -0 -0 -0 -0 -0 -0 -0 -0 -0 -0 -3 -6 -2 -0 -2
-0 -0 -0 -0 -0 -0 -0 -0 -0 -0 -0 -0 -1 -0 -0 -0 -0 -0 -0 -0 -7 -0 -0 -0 -7 -13 -0 -3 -9 -0 -0 -0 -3 -5 -0 -3 -1 -0 -2 -0 -0 -0 -0 -2
-0 -0 -0 -0 -0 -0 -0 -1 -7 -0 -0 -0 -4 -0 -0 -0 -0 -8 -0 -15 -0 -0 -2 -0 -1 -0 -10 -2 -20 -0 -0 -0 -0 -0 -0 -0 -0 -1 -12 -4 -2 -0 -1 -1
-0 -0 -0 -1 -1 -0 -0 -0 -3 -0 -0 -0 -3 -0 -0 -0 -0 -0 -2 -0 -0 -0 -0 -10 -0 -0 -1 -4 -3 -2 -16 -0 -0 -0 -0 -0 -0 -0 -0 -0 -1 -0 -0 -0
-0 -0 -0 -0 -0 -0 -0 -0 -0 -0 -0 -1 -0 -3 -0 -0 -0 -0 -0 -0 -0 -0 -1 -0 -2 -2 -2 -20 -1 -0 -0 -0 -0 -1 -1 -10 -9 -0 -0 -0 -0 -0 -0 -0
-0 -0 -0 -0 -0 -0 -0 -1 -0 -1 -0 -0 -0 -2 -0 -0 -0 -0 -0 -0 -0 -1 -1 -0 -11 -27 -20 -6 -0 -3 -1 -2 -0 -17 -2 -0 -0 -0 -0 -2 -2 -0 -1 -0
-0 -0 -0 -0 -0 -0 -0 -0 -0 -0 -2 -0 -0 -0 -0 -0 -0 -0 -0 -0 -0 -0 -1 -2 -8 -20 -34 -0 -0 -0 -0 -0 -4 -26 -12 -6 -22 -16 -1 -4 -0 -0 -0 -1
-0 -0 -0 -0 -0 -0 -0 -0 -0 -0 -0 -0 -4 -0 -0 -0 -0 -0 -0 -0 -0 -0 -0 -7 -25 -40 -26 -15 -11 -17 -23 -30 -38 -57 -3 -1 -0 -0 -13 -5 -3 -0 -0 -0
-0 -0 -0 -0 -0 -0 -0 -0 -0 -0 -0 -0 -0 -0 -1 -0 -0 -0 -0 -0 -0 -0 -0 -0 -0 -0 -0 -0 -0 -7 -29 -43 -45 -29 -33 -63 -69 -72 -30 -5 -6 -0 -0 -0
-0 -0 -0 -0 -0 -0 -0 -0 -0 -0 -0 -0 -0 -0 -0 -0 -4 -1 -1 -0 -0 -0 -0 -0 -0 -0 -0 -1 -0 -1 -6 -20 -22 -25 -36 -46 -54 -43 -38 -51 -49 -6 -0 -0
Wind_Speed
nan nan nan nan nan nan nan nan 15 19 20 13 21 nan 36 35 43 36 38 33 26 19 27 17 14 18 13 2 3 8 11 14 13 11 10 9 9 10 7 8 5 4 4 4
nan nan nan nan nan nan nan nan nan nan 15 19 25 45 24 38 41 43 43 43 37 31 27 25 20 14 15 11 10 8 15 16 18 17 16 16 13 11 10 7 7 6 4 4
nan nan nan nan nan nan 16 15 18 16 19 36 39 54 54 40 42 47 47 46 45 39 39 34 29 24 23 21 19 13 17 16 19 20 19 19 19 16 14 13 10 7 6 6
nan nan nan nan nan nan nan 24 48 43 32 66 23 57 64 56 53 46 46 50 52 50 46 41 37 35 30 30 25 25 21 21 23 25 22 21 21 20 19 15 13 13 9 7
nan nan nan nan 40 43 39 53 62 60 65 56 31 45 49 56 54 55 56 53 51 54 54 51 49 45 40 36 32 27 27 25 25 26 27 26 23 22 19 18 15 12 11 11
nan nan 13 45 nan 45 34 35 57 49 54 57 54 52 55 54 62 57 62 59 58 54 56 58 55 50 43 38 33 34 29 26 29 29 30 31 28 25 24 21 21 19 17 14
13 23 23 38 42 38 19 41 48 48 48 45 44 46 52 57 51 56 61 63 62 60 58 57 58 54 53 48 44 42 43 41 36 31 34 36 36 33 28 26 24 26 21 22
12 16 33 nan 40 36 32 38 42 39 39 41 42 41 44 50 53 58 62 64 62 66 65 65 60 57 56 53 49 43 43 40 37 37 42 42 42 47 43 43 38 37 33 27
nan 11 nan nan nan nan nan nan 29 33 34 nan nan nan nan nan nan 52 55 58 58 nan 67 72 67 67 59 58 54 49 50 47 45 44 41 45 49 44 50 27 44 42 47 50
nan nan 24 20 nan 27 33 nan nan 25 nan nan nan nan nan nan nan nan 48 50 50 54 50 64 73 69 70 65 62 53 51 48 47 45 42 41 38 36 39 47 42 50 41 69
nan nan nan nan nan 20 nan 17 nan nan nan nan nan nan nan nan nan nan 40 37 48 46 52 52 54 49 62 71 67 57 54 57 58 50 44 49 37 38 39 43 nan nan 59 nan
nan nan nan nan nan nan nan nan nan 10 15 17 21 22 nan nan nan nan 34 38 42 39 39 47 41 43 44 53 52 55 54 59 51 47 45 46 43 42 43 44 46 48 47 42
nan nan nan nan nan nan nan nan nan nan nan nan 16 15 17 23 27 nan nan nan 33 35 34 37 42 39 39 42 48 44 51 52 50 43 45 48 42 42 41 43 41 40 38 38
nan nan nan nan nan nan nan nan nan nan nan nan nan 13 15 18 22 25 27 30 32 32 32 33 34 34 36 40 39 39 36 nan nan nan nan nan 37 39 42 41 38 43 34 35
nan nan nan nan nan nan nan nan nan nan nan nan nan nan 12 18 20 21 26 30 30 29 30 31 33 35 35 34 36 36 36 nan nan nan nan nan nan nan 39 40 40 37 48 42
nan nan nan nan nan nan nan nan nan nan nan nan nan nan nan nan nan nan 16 22 28 31 30 30 33 32 32 32 34 35 36 34 nan nan nan nan nan nan nan nan 37 36 38 36
nan nan nan nan nan nan nan nan nan nan nan nan nan nan nan nan nan nan 14 17 21 23 26 25 26 29 30 29 30 35 36 nan nan nan nan nan nan nan nan nan nan 42 39 40
nan nan nan nan nan nan nan nan nan nan nan nan nan nan nan nan nan nan nan 16 16 20 18 24 24 22 22 24 25 31 32 nan nan nan nan nan nan nan nan nan 38 38 39 52
nan nan nan nan nan nan nan nan nan nan nan nan nan nan nan nan nan nan nan nan nan 10 14 19 19 22 22 23 23 26 27 30 nan nan nan nan nan nan nan nan 39 37 40 48
nan nan nan nan nan nan nan nan nan nan nan nan nan nan nan nan nan nan nan 6 nan nan 12 12 15 16 21 19 23 25 22 21 21 24 27 32 35 38 37 nan 38 40 41 39
nan nan nan nan nan nan nan nan nan nan nan nan nan nan nan nan nan nan nan nan nan 8 8 11 11 16 21 22 21 23 21 18 18 18 23 26 28 26 30 34 39 41 39 37
nan nan nan nan nan nan nan nan nan nan nan nan nan nan nan nan nan nan nan nan nan nan nan 12 15 17 14 13 23 20 18 16 18 22 26 24 21 20 23 27 32 30 30 34
nan nan nan nan nan nan nan nan nan nan nan nan nan nan nan nan nan nan nan nan nan nan nan nan nan nan 13 11 7 15 18 21 18 22 20 17 19 25 24 22 29 29 29 31
nan nan nan nan nan nan nan nan nan nan nan nan nan nan nan nan nan nan nan nan nan nan nan nan nan nan nan 6 7 8 10 14 19 16 32 20 16 22 19 26 28 27 26 27
nan nan nan nan nan nan nan nan nan nan nan nan nan nan nan nan nan nan nan nan nan nan nan nan nan nan nan 20 21 22 23 25 28 28 21 21 27 24 22 20 25 26 27 28
nan nan nan nan nan nan nan nan nan nan nan nan nan nan nan nan nan nan nan nan nan nan nan nan 13 13 16 19 21 23 21 nan 22 23 25 28 34 35 37 36 33 31 30 30
nan nan nan nan nan nan nan nan nan nan nan nan nan nan nan nan nan nan nan nan nan nan nan nan nan nan nan nan nan 24 nan nan nan nan nan 25 28 30 34 38 41 44 46 48
Wind_Direction
nan nan nan nan nan nan nan nan 225 200 196 222 241 nan 208 213 241 229 236 248 257 260 291 296 305 308 303 177 5 350 338 342 333 328 319 312 312 308 302 305 309 320 328 315
nan nan nan nan nan nan nan nan nan nan 229 221 204 276 221 222 234 240 230 234 228 240 260 276 288 280 281 270 288 277 306 321 319 313 315 321 316 314 302 293 287 293 298 297
nan nan nan nan nan nan 229 238 236 239 237 224 230 248 241 234 242 233 238 237 236 232 229 240 271 268 272 272 271 274 268 284 299 307 316 310 310 313 314 314 304 282 272 273
nan nan nan nan nan nan nan 218 224 222 205 246 227 232 236 235 241 237 239 239 236 233 234 236 239 256 259 267 270 267 271 266 277 292 304 317 321 312 307 308 311 297 282 272
nan nan nan nan 242 229 232 235 229 225 222 226 216 229 254 241 242 243 237 237 238 235 231 233 235 242 251 257 265 267 264 263 266 281 292 301 307 310 304 292 282 277 268 258
nan nan 213 241 nan 235 232 256 239 231 235 230 226 230 239 232 224 234 236 233 226 230 233 230 232 243 248 253 255 262 259 253 252 267 277 287 292 295 293 299 287 276 271 245
256 222 242 240 230 224 251 241 239 240 243 232 235 233 226 232 239 231 231 228 228 232 231 234 233 235 245 250 250 248 247 247 249 254 263 267 269 275 275 282 284 278 255 253
270 281 253 nan 240 249 232 242 242 243 238 236 235 231 229 227 232 231 240 233 231 227 233 232 233 239 242 239 240 246 251 257 261 267 268 271 274 268 262 265 267 269 273 252
nan 244 nan nan nan nan nan nan 246 245 237 nan nan nan nan nan nan 227 233 242 240 nan 229 237 235 234 238 244 243 241 243 244 249 253 260 271 277 280 277 270 257 261 260 250
nan nan 234 231 nan 241 230 nan nan 233 nan nan nan nan nan nan nan nan 228 238 248 241 237 239 227 233 241 237 237 239 242 242 243 257 261 267 270 267 271 278 290 279 272 254
nan nan nan nan nan 227 nan 222 nan nan nan nan nan nan nan nan nan nan 248 258 252 250 241 244 236 238 233 242 242 239 243 246 251 253 260 264 262 268 275 274 nan nan 281 nan
nan nan nan nan nan nan nan nan nan 223 223 219 219 226 nan nan nan nan 253 250 255 258 254 257 266 261 248 244 224 234 244 242 241 241 251 254 253 257 269 275 272 275 276 306
nan nan nan nan nan nan nan nan nan nan nan nan 224 243 229 224 232 nan nan nan 249 252 250 249 255 260 257 256 233 255 249 245 239 240 253 252 253 255 257 258 265 277 283 282
nan nan nan nan nan nan nan nan nan nan nan nan nan 231 248 251 242 230 241 247 245 250 254 260 260 258 260 259 254 251 255 nan nan nan nan nan 251 255 256 257 264 275 265 267
nan nan nan nan nan nan nan nan nan nan nan nan nan nan 260 252 243 236 239 237 236 240 250 251 257 261 261 261 262 264 262 nan nan nan nan nan nan nan 251 258 253 256 267 260
nan nan nan nan nan nan nan nan nan nan nan nan nan nan nan nan nan nan 231 243 248 246 238 250 252 249 256 260 261 264 265 262 nan nan nan nan nan nan nan nan 250 249 256 263
nan nan nan nan nan nan nan nan nan nan nan nan nan nan nan nan nan nan 242 240 238 241 250 246 248 247 247 254 253 257 258 nan nan nan nan nan nan nan nan nan nan 253 251 257
nan nan nan nan nan nan nan nan nan nan nan nan nan nan nan nan nan nan nan 240 237 237 243 241 241 243 247 244 254 253 251 nan nan nan nan nan nan nan nan nan 248 245 246 253
nan nan nan nan nan nan nan nan nan nan nan nan nan nan nan nan nan nan nan nan nan 230 224 230 234 252 252 248 244 250 248 248 nan nan nan nan nan nan nan nan 249 245 249 255
nan nan nan nan nan nan nan nan nan nan nan nan nan nan nan nan nan nan nan 254 nan nan 231 224 240 248 247 253 260 254 250 254 256 253 246 240 240 241 245 nan 239 238 240 247
nan nan nan nan nan nan nan nan nan nan nan nan nan nan nan nan nan nan nan nan nan 211 239 237 261 265 270 268 260 262 260 261 260 260 257 254 249 243 233 236 241 234 237 238
nan nan nan nan nan nan nan nan nan nan nan nan nan nan nan nan nan nan nan nan nan nan nan 270 259 264 305 315 267 232 265 272 266 264 260 258 259 270 245 235 249 240 239 240
nan nan nan nan nan nan nan nan nan nan nan nan nan nan nan nan nan nan nan nan nan nan nan nan nan nan 225 285 280 228 241 266 269 260 274 260 247 235 245 237 247 235 233 234
nan nan nan nan nan nan nan nan nan nan nan nan nan nan nan nan nan nan nan nan nan nan nan nan nan nan nan 262 249 254 246 236 244 228 262 255 263 274 252 227 239 236 230 227
nan nan nan nan nan nan nan nan nan nan nan nan nan nan nan nan nan nan nan nan nan nan nan nan nan nan nan 246 244 242 247 240 234 225 225 218 215 230 253 240 229 228 231 229
nan nan nan nan nan nan nan nan nan nan nan nan nan nan nan nan nan nan nan nan nan nan nan nan 241 251 247 244 246 249 248 nan 246 243 241 235 230 223 218 215 217 216 218 222
nan nan nan nan nan nan nan nan nan nan nan nan nan nan nan nan nan nan nan nan nan nan nan nan nan nan nan nan nan 244 nan nan nan nan nan 241 239 235 226 220 220 221 226 231